Address 0x88c3f66f20bd66c4f2c62ce2c95b41473b04d007 3

 
Txn Hash Method
Block
From
To
Value [Txn Fee]
0xd43505476d9d0bda42abf5fd4d3d655eda92214950482a116855950bfcdeb566Claim324971422022-10-25 15:19:46102 days 1 hr ago0x88c3f66f20bd66c4f2c62ce2c95b41473b04d007OUT Radiant: MasterChef0 ETH0.00009167
0x8a27c9b1802bc129aed127dfbf75a64de6bfe637677de63df9ca538887d5cb10Get Reward324965502022-10-25 15:17:14102 days 1 hr ago0x88c3f66f20bd66c4f2c62ce2c95b41473b04d007OUT Radiant: Multi Fee Distribution0 ETH0.00015953
0xa1a923d8ec8d27b70d43c9c26e8d312597c3336484fa18296698137f0ebee1c5Get Reward205987072022-08-18 13:45:29170 days 2 hrs ago0x88c3f66f20bd66c4f2c62ce2c95b41473b04d007OUT Radiant: Multi Fee Distribution0 ETH0.000092115143 ETH
0xf4b42a1122c22b453fd5c6f49fbca712b0161090fd9b61c4cb1602372adbcf89Withdraw Expired...205986312022-08-18 13:44:06170 days 2 hrs ago0x88c3f66f20bd66c4f2c62ce2c95b41473b04d007OUT Radiant: Multi Fee Distribution0 ETH0.000086054377 ETH
0xea8ae33a116b165b6d68e7e33e1ee2986d37533d059ace0b377c854fda262ebaGet Reward205975572022-08-18 13:30:34170 days 3 hrs ago0x88c3f66f20bd66c4f2c62ce2c95b41473b04d007OUT Radiant: Multi Fee Distribution0 ETH0.000092319263 ETH
0xc01eb231096395495e5494b6807db6627474ed6c1ca14d267116ad10b4f12216Get Reward200929492022-08-12 15:47:44176 days 45 mins ago0x88c3f66f20bd66c4f2c62ce2c95b41473b04d007OUT Radiant: Multi Fee Distribution0 ETH0.000179036099 ETH
0xc08a2c0ae1fc35e5e070c82a60e3b0e69c7f2dea5ba7b04a7a47d806da3040b3Swap Exact Token...197489842022-08-08 20:32:48179 days 20 hrs ago0x88c3f66f20bd66c4f2c62ce2c95b41473b04d007OUT SushiSwap: Router0 ETH0.00012758062 ETH
0x300ef0a2f3a42c71cdca38529537d075694f536c4fb1e2b4a55edf6732486228Claim197488542022-08-08 20:30:27179 days 20 hrs ago0x88c3f66f20bd66c4f2c62ce2c95b41473b04d007OUT Radiant: MasterChef0 ETH0.000171136317 ETH
0xdd5c48ede71910088263cf29c326e0fbd8650a126ef847cf5d3248002650cba0Get Reward197487572022-08-08 20:28:47179 days 20 hrs ago0x88c3f66f20bd66c4f2c62ce2c95b41473b04d007OUT Radiant: Multi Fee Distribution0 ETH0.000149858911 ETH
0xe6cbe5f35a1032202bf4a6267ff6077c75bad48a429801ae53f94b23c161c274Withdraw186335942022-07-26 17:15:29192 days 23 hrs ago0x88c3f66f20bd66c4f2c62ce2c95b41473b04d007OUT Radiant: Lending Pool Logic0 ETH0.000128663881 ETH
0xbd99754bca4f8da5a3ba139da7e1609937584a0f98116cc51896a6bd407d1fc3Get Reward186334882022-07-26 17:13:53192 days 23 hrs ago0x88c3f66f20bd66c4f2c62ce2c95b41473b04d007OUT Radiant: Multi Fee Distribution0 ETH0.000180454048 ETH
0xd12db530fb5047c2c225611aaec23a5ffb110a6fdf464a1d1f94711dca4996f0Claim186333992022-07-26 17:12:20192 days 23 hrs ago0x88c3f66f20bd66c4f2c62ce2c95b41473b04d007OUT Radiant: MasterChef0 ETH0.000196197005 ETH
0x55f20c987a8bcfd2c15aab00be0b2866fb7396aea43e93441c598e28206ac4e6Repay186189342022-07-26 13:38:18193 days 2 hrs ago0x88c3f66f20bd66c4f2c62ce2c95b41473b04d007OUT Radiant: Lending Pool Logic0 ETH0.000113817833 ETH
0x484c6072cb655cd41388ae24bdbb8ac23b88013d2450552421d147654d25cba8Withdraw186189092022-07-26 13:38:18193 days 2 hrs ago0x88c3f66f20bd66c4f2c62ce2c95b41473b04d007OUT Radiant: Lending Pool Logic0 ETH0.000128037402 ETH
0x58ea8341a232b77d796ca9ea7a69a20ee349b484411197066c7d10fef115a465Deposit186102762022-07-26 11:50:42193 days 4 hrs ago0x88c3f66f20bd66c4f2c62ce2c95b41473b04d007OUT Radiant: Lending Pool Logic0 ETH0.000128941964 ETH
0xf10adfa795dbb677c73ea972be957818b8beddb205aa97a15ef1019bcc416ddbBorrow186102142022-07-26 11:50:15193 days 4 hrs ago0x88c3f66f20bd66c4f2c62ce2c95b41473b04d007OUT Radiant: Lending Pool Logic0 ETH0.00014165472 ETH
0x7d4e806350b9fb77fa239562ae51500f6a5d8da54af51604b4314e8115fb11b2Get Reward186098682022-07-26 11:43:44193 days 4 hrs ago0x88c3f66f20bd66c4f2c62ce2c95b41473b04d007OUT Radiant: Multi Fee Distribution0 ETH0.000226043979 ETH
0x5ffd34a7ffc849ec4f9689215b7b9aea6e30efe902e198e6f6fd4f080c5e8687Claim186097852022-07-26 11:42:13193 days 4 hrs ago0x88c3f66f20bd66c4f2c62ce2c95b41473b04d007OUT Radiant: MasterChef0 ETH0.000146717352 ETH
0x1cf43812fc02032e3c38c1c08441dcd1b23fc4fb95bee9aafcb49060c5888be9Deposit185600152022-07-25 20:53:29193 days 19 hrs ago0x88c3f66f20bd66c4f2c62ce2c95b41473b04d007OUT Radiant: Lending Pool Logic0 ETH0.000144058615 ETH
0x23c70ee78cf1e623030a3975e0522ac7bd1534f2e660c37c8e55f4c28ca9ad4bGet Reward185582262022-07-25 20:24:11193 days 20 hrs ago0x88c3f66f20bd66c4f2c62ce2c95b41473b04d007OUT Radiant: Multi Fee Distribution0 ETH0.000266185048 ETH
0xe0eab6f7ee4386a2e7c9d7d4df31a93fcba830633b0ec9fb24995a0363e9e063Swap Exact Token...185455372022-07-25 16:55:26193 days 23 hrs ago0x88c3f66f20bd66c4f2c62ce2c95b41473b04d007OUT SushiSwap: Router0 ETH0.000122082643 ETH
0x8ca6ed886ffd13c9a73a123086f218572ffbd9928dff8f5084af6f56a3553374Claim185233882022-07-25 11:40:36194 days 4 hrs ago0x88c3f66f20bd66c4f2c62ce2c95b41473b04d007OUT Radiant: MasterChef0 ETH0.000102588716 ETH
0x95093191a764fa700481f31e004a6c7d29e4045c31bbbf3ebd4b755a307eda97Loop185202862022-07-25 10:50:00194 days 5 hrs ago0x88c3f66f20bd66c4f2c62ce2c95b41473b04d007OUT Radiant: Leverager0 ETH0.000140868276 ETH
0x83b300932e2ef8882f8b0b6c660a4550de10ee96e7c63c3129219fa7010b51ebApprove Delegati...185202472022-07-25 10:50:00194 days 5 hrs ago0x88c3f66f20bd66c4f2c62ce2c95b41473b04d007OUT 0xf92d501e74bd1e4308e6676c38ab4d84389d7bf30 ETH0.00004643844 ETH
0xf5933feceaa5583fdd5fe2c2fc6f44a62f40d0df83eaada33af9aa3fa4c0093dApprove185202352022-07-25 10:47:39194 days 5 hrs ago0x88c3f66f20bd66c4f2c62ce2c95b41473b04d007OUT 0xff970a61a04b1ca14834a43f5de4533ebddb5cc80 ETH0.000046803817 ETH
[ Download CSV Export 
Latest 3 internal transactions
Parent Txn Hash Block From To Value
0xc08a2c0ae1fc35e5e070c82a60e3b0e69c7f2dea5ba7b04a7a47d806da3040b3197489842022-08-08 20:32:48179 days 20 hrs ago SushiSwap: Router0x88c3f66f20bd66c4f2c62ce2c95b41473b04d0070.043962199995985646 ETH
0xe0eab6f7ee4386a2e7c9d7d4df31a93fcba830633b0ec9fb24995a0363e9e063185455372022-07-25 16:55:26193 days 23 hrs ago SushiSwap: Router0x88c3f66f20bd66c4f2c62ce2c95b41473b04d0070.049516289700322617 ETH
0x4e24cfb4808f00b76f500333daae2a4c05f88ebec697eddd602a8e19cc9c5e0e184596252022-07-24 16:46:14194 days 23 hrs ago Hop Protocol: ETH Wrapper0x88c3f66f20bd66c4f2c62ce2c95b41473b04d0070.200059707801548972 ETH
[ Download CSV Export 
Loading

Contract Name:
0 ETH

Compiler Version
0

Optimization Enabled:
0 ETH

Other Settings:
-NA-
Block Transaction Gas Used Reward
Age Block Fee Address BC Fee Address Voting Power Jailed Incoming
Block Uncle Number Difficulty Gas Used Reward
Loading
Make sure to use the "Vote Down" button for any spammy posts, and the "Vote Up" for interesting conversations.